Find Starlink 36168

NORAD ID: 68677 Int'l Des: 2026-077 Owner: SPXS Country: US Constellation: starlink operational
LEOCIRCULARRETROGRADE

当前视图

正在加载3D地球...

关于 Starlink 36168

正在加载描述...

即将过境

Passes for default location (London). Set your location on the main map for personalized predictions.

高度历史

Loading altitude history...

两行轨道根数

1 68677U 26077R 26146.62427628 .00018203 00000-0 56476-3 0 9997
2 68677 97.2858 18.2076 0002292 99.8100 260.3401 15.33446988 7106
Epoch: May 26, 2026 • Age: 9 hours

当前状态

高度 473.8 km
速度 7.63 km/s
星下点 -20.55°S, 43.99°W
发射日期 Apr 11, 2026
运行时间 0.1 years
类型 internet

技术详情

分类 Payload
质量 575.00 kg
干质量 530.00 kg
总质量 575.00 kg
长度 0.30 m
直径 4.10 m
跨度 29.00 m
形状 Box + pan
制造商 SPXS
平台类型 Starlink V2MO
阶段状态 In Orbit
所有者/国家 SPXS/US

Most Searched